Regional Weather Roundup
Issued by NWS

Home | Current Version | Previous Version | Text Only | Print | Product List | Glossary Off
Versions: 1 2 3 4 5 6 7 8 9 10 11 12 13 14 15 16 17 18 19 20 21 22 23 24 25 26 27 28 29 30 31 32 33 34 35 36 37 38 39 40 41 42 43 44 45 46 47 48 49 50

308
ASUS43 KFSD 241210
RWRSD

WEATHER ROUNDUP FOR SOUTH DAKOTA
NATIONAL WEATHER SERVICE SIOUX FALLS SD
700 AM CDT TUE MAY 24 2016

NOTE: "FAIR" INDICATES FEW OR NO CLOUDS BELOW 12,000 FEET WITH NO
SIGNIFICANT WEATHER AND/OR OBSTRUCTIONS TO VISIBILITY.


SDZ001>005-009-010-012>017-241300-
NORTHWEST AND NORTH CENTRAL SOUTH DAKOTA

CITY           SKY/WX    TMP DP  RH WIND       PRES   REMARKS
BUFFALO          N/A     43  35  73 CALM      29.82R
FAITH            N/A     45  39  79 NW10      29.87R
MOBRIDGE       CLEAR     53  47  79 NW7       29.81R
$$

SDZ012>016-024>037-041>051-057-063-072>074-241300-
SOUTHWEST AND SOUTH CENTRAL SOUTH DAKOTA

CITY           SKY/WX    TMP DP  RH WIND       PRES   REMARKS
RAPID CTY ARPT CLEAR     47  36  65 NW10      29.89R
PIERRE         CLEAR     49  45  86 NE9       29.81R
CUSTER         CLEAR     38  29  70 NW5       29.94R
ELLSWORTH AFB  CLEAR     49  37  62 NW9       29.88R
PHILIP         CLEAR     44  40  85 NW5       29.85R
PINE RIDGE     CLEAR     36  32  85 CALM      29.89R
WINNER         FAIR      51  43  74 S14       29.85R
$$

SDZ004>011-016>023-039-040-241300-
NORTHEAST SOUTH DAKOTA

CITY           SKY/WX    TMP DP  RH WIND       PRES   REMARKS
ABERDEEN       CLEAR     58  49  72 NE14      29.79R
WATERTOWN      SUNNY     60  56  86 CALM      29.82S
BROOKINGS      FOG       60  59  96 SE8       29.82R VSB 1/4
SISSETON         N/A     58  50  75 NW6       29.82R
$$

SDZ017-020-022-023-036>040-048>070-241300-
SOUTHEAST SOUTH DAKOTA

CITY           SKY/WX    TMP DP  RH WIND       PRES   REMARKS
SIOUX FALLS    CLOUDY    62  60  93 S8        29.84R FOG
HURON          FOG       58  58 100 S7        29.78R VSB<1/4
CHAMBERLAIN    CLEAR     55  53  94 SW6       29.83R
MITCHELL       FOG       56  56 100 S7        29.82R VSB 3/4
YANKTON        CLOUDY    59  55  88 SE6       29.83R
$$

ABBREVIATIONS USED IN REMARKS
   TC - TEMPERATURE IN CELSIUS
  WCI - WIND CHILL INDEX
   HX - HEAT INDEX
  VSB - VISIBILITY





USA.gov is the U.S. government's official web portal to all federal, state and local government web resources and services.